| time (UTC) | temp F | wind direction | speed MPH | gust MPH | rain 1hr in | rain 24hr in | rain mn in | humidity % | barometer mb |
| 20260906213713 | 89 | 155 | 1.0 | 2.0 | 0.00 | 0.00 | 0.00 | 35 | 1021.6 |
| 20260906213208 | 89 | 155 | 0.0 | 0.0 | 0.00 | 0.00 | 0.00 | 35 | 1021.7 |
| 20260906212705 | 89 | 155 | 1.0 | 3.0 | 0.00 | 0.00 | 0.00 | 35 | 1021.6 |
| 20260906212201 | 89 | 155 | 0.0 | 1.0 | 0.00 | 0.00 | 0.00 | 35 | 1021.5 |
| 20260906211700 | 89 | 155 | 0.0 | 1.0 | 0.00 | 0.00 | 0.00 | 36 | 1021.9 |
| 20260906211155 | 89 | 155 | 0.0 | 0.0 | 0.00 | 0.00 | 0.00 | 36 | 1021.6 |
| 20260906210651 | 90 | 155 | 1.0 | 2.0 | 0.00 | 0.00 | 0.00 | 37 | 1021.7 |
| 20260906210151 | 89 | 155 | 0.0 | 0.0 | 0.00 | 0.00 | 0.00 | 36 | 1021.7 |
| 20260906205647 | 88 | 155 | 0.0 | 1.0 | 0.00 | 0.00 | 0.00 | 37 | 1021.9 |
| 20260906205143 | 89 | 154 | 0.0 | 0.0 | 0.00 | 0.00 | 0.00 | 37 | 1022.1 |
| 20260906204642 | 89 | 154 | 0.0 | 1.0 | 0.00 | 0.00 | 0.00 | 37 | 1022.1 |
| 20260906204137 | 89 | 154 | 0.0 | 1.0 | 0.00 | 0.00 | 0.00 | 38 | 1022.1 |
| 20260906203638 | 89 | 154 | 1.0 | 2.0 | 0.00 | 0.00 | 0.00 | 37 | 1022.4 |
| 20260906203138 | 88 | 155 | 0.0 | 1.0 | 0.00 | 0.00 | 0.00 | 38 | 1022.4 |
| 20260906202635 | 88 | 155 | 0.0 | 0.0 | 0.00 | 0.00 | 0.00 | 38 | 1022.2 |
| 20260906202133 | 89 | 154 | 0.0 | 1.0 | 0.00 | 0.00 | 0.00 | 38 | 1022.6 |
| 20260906201629 | 88 | 154 | 0.0 | 0.0 | 0.00 | 0.00 | 0.00 | 39 | 1022.5 |
| 20260906201128 | 88 | 154 | 0.0 | 0.0 | 0.00 | 0.00 | 0.00 | 38 | 1022.5 |
| 20260906200625 | 89 | 154 | 2.0 | 5.0 | 0.00 | 0.00 | 0.00 | 37 | 1022.5 |
| 20260906200120 | 89 | 154 | 1.0 | 1.0 | 0.00 | 0.00 | 0.00 | 36 | 1022.7 |
| 20260906195615 | 88 | 154 | 0.0 | 0.0 | 0.00 | 0.00 | 0.00 | 36 | 1022.7 |
| 20260906195112 | 88 | 154 | 0.0 | 0.0 | 0.00 | 0.00 | 0.00 | 36 | 1022.6 |
| 20260906194607 | 88 | 154 | 0.0 | 0.0 | 0.00 | 0.00 | 0.00 | 37 | 1022.7 |
| 20260906194103 | 88 | 154 | 3.0 | 7.0 | 0.00 | 0.00 | 0.00 | 37 | 1023.0 |
| 20260906193602 | 87 | 154 | 0.0 | 1.0 | 0.00 | 0.00 | 0.00 | 35 | 1023.2 |
| 20260906193058 | 87 | 154 | 2.0 | 3.0 | 0.00 | 0.00 | 0.00 | 36 | 1023.3 |
| 20260906192553 | 86 | 154 | 0.0 | 0.0 | 0.00 | 0.00 | 0.00 | 38 | 1023.2 |
| 20260906192052 | 87 | 154 | 1.0 | 2.0 | 0.00 | 0.00 | 0.00 | 36 | 1023.2 |
| 20260906191548 | 85 | 154 | 0.0 | 1.0 | 0.00 | 0.00 | 0.00 | 38 | 1023.6 |
| 20260906191047 | 87 | 154 | 0.0 | 0.0 | 0.00 | 0.00 | 0.00 | 38 | 1023.2 |
| 20260906190546 | 87 | 154 | 0.0 | 1.0 | 0.00 | 0.00 | 0.00 | 36 | 1023.4 |
| 20260906190041 | 86 | 154 | 0.0 | 1.0 | 0.00 | 0.00 | 0.00 | 38 | 1023.6 |
| 20260906185540 | 86 | 154 | 0.0 | 0.0 | 0.00 | 0.00 | 0.00 | 37 | 1023.2 |
| 20260906185039 | 87 | 154 | 0.0 | 1.0 | 0.00 | 0.00 | 0.00 | 36 | 1023.7 |
| 20260906184534 | 86 | 154 | 0.0 | 1.0 | 0.00 | 0.00 | 0.00 | 37 | 1023.8 |
| 20260906184030 | 86 | 154 | 2.0 | 2.0 | 0.00 | 0.00 | 0.00 | 37 | 1024.0 |
| 20260906183526 | 86 | 154 | 0.0 | 1.0 | 0.00 | 0.00 | 0.00 | 37 | 1024.2 |
| 20260906183021 | 87 | 154 | 0.0 | 0.0 | 0.00 | 0.00 | 0.00 | 36 | 1023.9 |
| 20260906182516 | 85 | 154 | 0.0 | 1.0 | 0.00 | 0.00 | 0.00 | 38 | 1024.0 |
| 20260906182012 | 84 | 154 | 0.0 | 0.0 | 0.00 | 0.00 | 0.00 | 39 | 1024.3 |
| 20260906181508 | 85 | 154 | 0.0 | 0.0 | 0.00 | 0.00 | 0.00 | 38 | 1024.3 |
| 20260906181003 | 84 | 154 | 0.0 | 1.0 | 0.00 | 0.00 | 0.00 | 38 | 1024.4 |
| 20260906180458 | 84 | 154 | 0.0 | 0.0 | 0.00 | 0.00 | 0.00 | 39 | 1024.5 |
| 20260906175956 | 84 | 154 | 1.0 | 1.0 | 0.00 | 0.00 | 0.00 | 39 | 1024.8 |
| 20260906175451 | 83 | 154 | 0.0 | 1.0 | 0.00 | 0.00 | 0.00 | 40 | 1024.9 |
| 20260906174950 | 84 | 154 | 0.0 | 0.0 | 0.00 | 0.00 | 0.00 | 39 | 1024.8 |
| 20260906174449 | 84 | 154 | 0.0 | 0.0 | 0.00 | 0.00 | 0.00 | 40 | 1024.9 |
| 20260906173944 | 84 | 154 | 0.0 | 0.0 | 0.00 | 0.00 | 0.00 | 39 | 1024.9 |
| 20260906173439 | 85 | 154 | 0.0 | 0.0 | 0.00 | 0.00 | 0.00 | 38 | 1024.9 |
| 20260906172939 | 81 | 154 | 0.0 | 0.0 | 0.00 | 0.00 | 0.00 | 41 | 1025.0 |
| 20260906172435 | 82 | 154 | 1.0 | 2.0 | 0.00 | 0.00 | 0.00 | 42 | 1025.3 |
| 20260906171930 | 82 | 154 | 0.0 | 0.0 | 0.00 | 0.00 | 0.00 | 40 | 1025.4 |
| 20260906171425 | 82 | 154 | 0.0 | 0.0 | 0.00 | 0.00 | 0.00 | 39 | 1025.1 |
| 20260906170921 | 81 | 154 | 0.0 | 0.0 | 0.00 | 0.00 | 0.00 | 40 | 1025.4 |
| 20260906170417 | 82 | 155 | 0.0 | 0.0 | 0.00 | 0.00 | 0.00 | 39 | 1025.4 |
| 20260906165913 | 82 | 154 | 0.0 | 0.0 | 0.00 | 0.00 | 0.00 | 38 | 1025.5 |
| 20260906165412 | 81 | 154 | 0.0 | 0.0 | 0.00 | 0.00 | 0.00 | 39 | 1025.5 |
| 20260906164907 | 82 | 155 | 0.0 | 0.0 | 0.00 | 0.00 | 0.00 | 38 | 1025.4 |
| 20260906164406 | 82 | 154 | 0.0 | 0.0 | 0.00 | 0.00 | 0.00 | 37 | 1025.4 |
| 20260906163902 | 81 | 154 | 0.0 | 1.0 | 0.00 | 0.00 | 0.00 | 38 | 1025.4 |
| 20260906163358 | 81 | 154 | 0.0 | 0.0 | 0.00 | 0.00 | 0.00 | 38 | 1025.5 |
| 20260906162856 | 81 | 154 | 0.0 | 0.0 | 0.00 | 0.00 | 0.00 | 39 | 1025.4 |
| 20260906162355 | 81 | 154 | 0.0 | 0.0 | 0.00 | 0.00 | 0.00 | 41 | 1025.4 |
| 20260906161850 | 80 | 154 | 0.0 | 0.0 | 0.00 | 0.00 | 0.00 | 40 | 1025.5 |
| 20260906161349 | 79 | 154 | 0.0 | 0.0 | 0.00 | 0.00 | 0.00 | 42 | 1025.5 |
| 20260906160849 | 80 | 154 | 0.0 | 0.0 | 0.00 | 0.00 | 0.00 | 40 | 1025.4 |
| 20260906160342 | 80 | 154 | 0.0 | 0.0 | 0.00 | 0.00 | 0.00 | 41 | 1025.3 |
| 20260906155841 | 77 | 154 | 0.0 | 0.0 | 0.00 | 0.00 | 0.00 | 41 | 1025.5 |
| 20260906155334 | 78 | 154 | 1.0 | 2.0 | 0.00 | 0.00 | 0.00 | 42 | 1025.5 |
| 20260906154831 | 78 | 154 | 0.0 | 0.0 | 0.00 | 0.00 | 0.00 | 43 | 1025.5 |
| 20260906154325 | 78 | 154 | 0.0 | 0.0 | 0.00 | 0.00 | 0.00 | 43 | 1025.3 |
| 20260906153824 | 79 | 154 | 0.0 | 0.0 | 0.00 | 0.00 | 0.00 | 44 | 1025.3 |
| 20260906153324 | 79 | 154 | 0.0 | 0.0 | 0.00 | 0.00 | 0.00 | 43 | 1025.1 |
| 20260906152819 | 77 | 154 | 0.0 | 0.0 | 0.00 | 0.00 | 0.00 | 43 | 1025.1 |
| 20260906152314 | 77 | 154 | 0.0 | 0.0 | 0.00 | 0.00 | 0.00 | 44 | 1025.1 |
| 20260906151813 | 77 | 154 | 0.0 | 0.0 | 0.00 | 0.00 | 0.00 | 44 | 1025.5 |
| 20260906151309 | 77 | 154 | 0.0 | 0.0 | 0.00 | 0.00 | 0.00 | 45 | 1025.1 |
| 20260906150804 | 76 | 154 | 0.0 | 0.0 | 0.00 | 0.00 | 0.00 | 45 | 1025.1 |
| 20260906150300 | 75 | 154 | 0.0 | 0.0 | 0.00 | 0.00 | 0.00 | 46 | 1024.9 |
| 20260906145759 | 74 | 155 | 0.0 | 0.0 | 0.00 | 0.00 | 0.00 | 46 | 1025.1 |
| 20260906145257 | 74 | 155 | 0.0 | 1.0 | 0.00 | 0.00 | 0.00 | 47 | 1025.0 |
| 20260906144753 | 74 | 155 | 0.0 | 0.0 | 0.00 | 0.00 | 0.00 | 47 | 1024.9 |
| 20260906144248 | 73 | 155 | 0.0 | 0.0 | 0.00 | 0.00 | 0.00 | 48 | 1025.0 |
| 20260906143747 | 75 | 155 | 0.0 | 0.0 | 0.00 | 0.00 | 0.00 | 49 | 1025.1 |
| 20260906143244 | 74 | 155 | 0.0 | 0.0 | 0.00 | 0.00 | 0.00 | 49 | 1024.9 |
| 20260906142744 | 73 | 155 | 0.0 | 0.0 | 0.00 | 0.00 | 0.00 | 47 | 1025.4 |
| 20260906142239 | 73 | 155 | 0.0 | 0.0 | 0.00 | 0.00 | 0.00 | 47 | 1024.9 |
| 20260906141738 | 73 | 155 | 0.0 | 0.0 | 0.00 | 0.00 | 0.00 | 48 | 1024.5 |
| 20260906141233 | 72 | 155 | 0.0 | 0.0 | 0.00 | 0.00 | 0.00 | 51 | 1024.9 |
| 20260906140732 | 70 | 155 | 0.0 | 0.0 | 0.00 | 0.00 | 0.00 | 51 | 1025.0 |
| 20260906140227 | 70 | 155 | 0.0 | 0.0 | 0.00 | 0.00 | 0.00 | 54 | 1025.0 |
| 20260906135724 | 69 | 155 | 0.0 | 0.0 | 0.00 | 0.00 | 0.00 | 55 | 1025.4 |
| 20260906135220 | 67 | 156 | 0.0 | 0.0 | 0.00 | 0.00 | 0.00 | 58 | 1024.7 |
| 20260906134716 | 66 | 156 | 0.0 | 0.0 | 0.00 | 0.00 | 0.00 | 59 | 1024.8 |
| 20260906134211 | 66 | 156 | 0.0 | 0.0 | 0.00 | 0.00 | 0.00 | 61 | 1024.7 |
| 20260906133706 | 65 | 156 | 0.0 | 0.0 | 0.00 | 0.00 | 0.00 | 63 | 1024.7 |
| 20260906133201 | 64 | 156 | 0.0 | 0.0 | 0.00 | 0.00 | 0.00 | 65 | 1024.7 |
| 20260906132657 | 64 | 156 | 0.0 | 0.0 | 0.00 | 0.00 | 0.00 | 68 | 1024.7 |
| 20260906132152 | 64 | 156 | 0.0 | 0.0 | 0.00 | 0.00 | 0.00 | 67 | 1024.4 |
| 20260906131648 | 63 | 156 | 0.0 | 0.0 | 0.00 | 0.00 | 0.00 | 65 | 1024.7 |
| 20260906131142 | 63 | 156 | 0.0 | 0.0 | 0.00 | 0.00 | 0.00 | 65 | 1024.4 |
| 20260906130638 | 62 | 156 | 0.0 | 0.0 | 0.00 | 0.00 | 0.00 | 63 | 1024.7 |
| 20260906130133 | 63 | 156 | 0.0 | 0.0 | 0.00 | 0.00 | 0.00 | 64 | 1024.4 |
| 20260906125631 | 62 | 155 | 0.0 | 0.0 | 0.00 | 0.00 | 0.00 | 63 | 1024.5 |
| 20260906125129 | 62 | 155 | 0.0 | 0.0 | 0.00 | 0.00 | 0.00 | 66 | 1024.4 |
| 20260906124625 | 61 | 155 | 0.0 | 0.0 | 0.00 | 0.00 | 0.00 | 67 | 1024.5 |
| 20260906124120 | 61 | 155 | 0.0 | 0.0 | 0.00 | 0.00 | 0.00 | 66 | 1024.4 |
| 20260906123620 | 61 | 155 | 0.0 | 0.0 | 0.00 | 0.00 | 0.00 | 67 | 1024.4 |
| 20260906123115 | 61 | 155 | 0.0 | 0.0 | 0.00 | 0.00 | 0.00 | 66 | 1024.7 |
| 20260906122614 | 60 | 155 | 0.0 | 0.0 | 0.00 | 0.00 | 0.00 | 67 | 1024.3 |
| 20260906122110 | 60 | 155 | 0.0 | 0.0 | 0.00 | 0.00 | 0.00 | 67 | 1024.5 |
| 20260906121606 | 60 | 155 | 0.0 | 0.0 | 0.00 | 0.00 | 0.00 | 69 | 1024.7 |
| 20260906121102 | 60 | 156 | 0.0 | 0.0 | 0.00 | 0.00 | 0.00 | 69 | 1024.4 |
| 20260906120556 | 61 | 156 | 0.0 | 0.0 | 0.00 | 0.00 | 0.00 | 68 | 1024.4 |
| 20260906120054 | 60 | 156 | 0.0 | 0.0 | 0.00 | 0.00 | 0.00 | 68 | 1024.3 |
| 20260906115554 | 61 | 156 | 0.0 | 0.0 | 0.00 | 0.00 | 0.00 | 67 | 1024.2 |
| 20260906115050 | 61 | 156 | 0.0 | 0.0 | 0.00 | 0.00 | 0.00 | 66 | 1024.3 |
| 20260906114549 | 61 | 156 | 0.0 | 0.0 | 0.00 | 0.00 | 0.00 | 65 | 1024.3 |
| 20260906114045 | 61 | 156 | 0.0 | 0.0 | 0.00 | 0.00 | 0.00 | 66 | 1024.3 |
| 20260906113544 | 61 | 156 | 0.0 | 0.0 | 0.00 | 0.00 | 0.00 | 66 | 1024.2 |
| 20260906113039 | 62 | 156 | 0.0 | 0.0 | 0.00 | 0.00 | 0.00 | 65 | 1023.9 |
| 20260906112534 | 62 | 156 | 0.0 | 0.0 | 0.00 | 0.00 | 0.00 | 64 | 1024.2 |
| 20260906112031 | 62 | 156 | 0.0 | 0.0 | 0.00 | 0.00 | 0.00 | 63 | 1024.0 |
| 20260906111530 | 62 | 156 | 0.0 | 0.0 | 0.00 | 0.00 | 0.00 | 63 | 1023.8 |
| 20260906111026 | 62 | 156 | 0.0 | 0.0 | 0.00 | 0.00 | 0.00 | 64 | 1023.9 |
| 20260906110525 | 62 | 156 | 0.0 | 0.0 | 0.00 | 0.00 | 0.00 | 64 | 1023.8 |
| 20260906110025 | 63 | 156 | 0.0 | 0.0 | 0.00 | 0.00 | 0.00 | 63 | 1023.8 |
| 20260906105520 | 63 | 156 | 0.0 | 0.0 | 0.00 | 0.00 | 0.00 | 63 | 1023.8 |
| 20260906105016 | 63 | 156 | 0.0 | 0.0 | 0.00 | 0.00 | 0.00 | 63 | 1023.7 |
| 20260906104514 | 63 | 156 | 0.0 | 0.0 | 0.00 | 0.00 | 0.00 | 64 | 1023.7 |
| 20260906104009 | 63 | 156 | 0.0 | 0.0 | 0.00 | 0.00 | 0.00 | 63 | 1023.8 |
| 20260906103507 | 64 | 156 | 0.0 | 0.0 | 0.00 | 0.00 | 0.00 | 61 | 1023.8 |
| 20260906103003 | 64 | 156 | 0.0 | 0.0 | 0.00 | 0.00 | 0.00 | 60 | 1023.8 |
| 20260906102502 | 63 | 156 | 0.0 | 0.0 | 0.00 | 0.00 | 0.00 | 63 | 1023.9 |
| 20260906102002 | 63 | 156 | 0.0 | 0.0 | 0.00 | 0.00 | 0.00 | 65 | 1023.8 |
| 20260906101457 | 63 | 156 | 0.0 | 0.0 | 0.00 | 0.00 | 0.00 | 65 | 1024.0 |
| 20260906100953 | 64 | 156 | 0.0 | 0.0 | 0.00 | 0.00 | 0.00 | 64 | 1024.3 |
| 20260906100448 | 64 | 156 | 0.0 | 0.0 | 0.00 | 0.00 | 0.00 | 63 | 1024.3 |
| 20260906095948 | 64 | 156 | 0.0 | 0.0 | 0.00 | 0.00 | 0.00 | 64 | 1024.4 |
| 20260906095443 | 64 | 156 | 0.0 | 0.0 | 0.00 | 0.00 | 0.00 | 64 | 1024.4 |
| 20260906094938 | 64 | 156 | 0.0 | 0.0 | 0.00 | 0.00 | 0.00 | 62 | 1024.5 |
| 20260906094432 | 63 | 156 | 0.0 | 0.0 | 0.00 | 0.00 | 0.00 | 64 | 1024.5 |
| 20260906093928 | 64 | 156 | 0.0 | 0.0 | 0.00 | 0.00 | 0.00 | 63 | 1024.5 |
| 20260906093424 | 64 | 156 | 0.0 | 0.0 | 0.00 | 0.00 | 0.00 | 63 | 1024.0 |
| 20260906092924 | 64 | 156 | 0.0 | 0.0 | 0.00 | 0.00 | 0.00 | 62 | 1024.4 |
| 20260906092424 | 64 | 156 | 0.0 | 0.0 | 0.00 | 0.00 | 0.00 | 61 | 1023.9 |
| 20260906091920 | 66 | 156 | 0.0 | 0.0 | 0.00 | 0.00 | 0.00 | 60 | 1024.0 |
| 20260906091415 | 66 | 156 | 0.0 | 0.0 | 0.00 | 0.00 | 0.00 | 58 | 1023.8 |
| 20260906090912 | 66 | 156 | 0.0 | 0.0 | 0.00 | 0.00 | 0.00 | 58 | 1023.8 |
| 20260906090411 | 67 | 156 | 0.0 | 0.0 | 0.00 | 0.00 | 0.00 | 57 | 1023.9 |
| 20260906085906 | 66 | 156 | 0.0 | 0.0 | 0.00 | 0.00 | 0.00 | 56 | 1023.9 |
| 20260906085406 | 66 | 156 | 0.0 | 0.0 | 0.00 | 0.00 | 0.00 | 58 | 1023.8 |
| 20260906084905 | 66 | 156 | 0.0 | 0.0 | 0.00 | 0.00 | 0.00 | 58 | 1024.0 |
| 20260906084400 | 65 | 156 | 0.0 | 0.0 | 0.00 | 0.00 | 0.00 | 59 | 1023.9 |
| 20260906083854 | 66 | 156 | 0.0 | 0.0 | 0.00 | 0.00 | 0.00 | 59 | 1023.9 |
| 20260906083350 | 66 | 156 | 0.0 | 0.0 | 0.00 | 0.00 | 0.00 | 59 | 1024.0 |
| 20260906082849 | 67 | 156 | 0.0 | 0.0 | 0.00 | 0.00 | 0.00 | 58 | 1024.0 |
| 20260906082344 | 67 | 156 | 0.0 | 0.0 | 0.00 | 0.00 | 0.00 | 57 | 1023.9 |
| 20260906081840 | 67 | 156 | 0.0 | 0.0 | 0.00 | 0.00 | 0.00 | 56 | 1024.0 |
| 20260906081336 | 67 | 156 | 0.0 | 0.0 | 0.00 | 0.00 | 0.00 | 57 | 1023.8 |
| 20260906080832 | 67 | 156 | 0.0 | 0.0 | 0.00 | 0.00 | 0.00 | 58 | 1024.0 |
| 20260906080328 | 67 | 156 | 0.0 | 1.0 | 0.00 | 0.00 | 0.00 | 58 | 1024.0 |
| 20260906075827 | 67 | 156 | 0.0 | 0.0 | 0.00 | 0.00 | 0.00 | 58 | 1024.0 |
| 20260906075327 | 67 | 156 | 0.0 | 0.0 | 0.00 | 0.00 | 0.00 | 59 | 1024.3 |
| 20260906074823 | 67 | 156 | 0.0 | 0.0 | 0.00 | 0.00 | 0.00 | 60 | 1024.4 |
| 20260906074322 | 67 | 156 | 0.0 | 0.0 | 0.00 | 0.00 | 0.00 | 61 | 1024.3 |
| 20260906073821 | 67 | 156 | 0.0 | 0.0 | 0.00 | 0.00 | 0.00 | 61 | 1024.0 |
| 20260906073321 | 67 | 156 | 0.0 | 0.0 | 0.00 | 0.00 | 0.00 | 61 | 1024.4 |
| 20260906072818 | 67 | 156 | 0.0 | 0.0 | 0.00 | 0.00 | 0.00 | 61 | 1024.4 |
| 20260906072313 | 66 | 156 | 0.0 | 0.0 | 0.00 | 0.00 | 0.00 | 62 | 1024.3 |
| 20260906071809 | 66 | 156 | 0.0 | 0.0 | 0.00 | 0.00 | 0.00 | 64 | 1024.5 |
| 20260906071304 | 67 | 156 | 0.0 | 0.0 | 0.00 | 0.00 | 0.00 | 64 | 1024.5 |
| 20260906070801 | 67 | 156 | 0.0 | 0.0 | 0.00 | 0.00 | 0.00 | 64 | 1024.4 |
| 20260906070256 | 66 | 156 | 0.0 | 0.0 | 0.00 | 0.00 | 0.00 | 65 | 1024.4 |
| 20260906065755 | 66 | 156 | 0.0 | 0.0 | 0.00 | 0.00 | 0.00 | 66 | 1024.3 |
| 20260906065251 | 66 | 156 | 0.0 | 0.0 | 0.00 | 0.00 | 0.00 | 67 | 1024.4 |
| 20260906064747 | 65 | 156 | 0.0 | 0.0 | 0.00 | 0.00 | 0.00 | 68 | 1024.3 |
| 20260906064242 | 65 | 156 | 0.0 | 0.0 | 0.00 | 0.00 | 0.00 | 70 | 1024.4 |
| 20260906063737 | 65 | 156 | 0.0 | 0.0 | 0.00 | 0.00 | 0.00 | 69 | 1024.5 |
| 20260906063233 | 66 | 156 | 0.0 | 0.0 | 0.00 | 0.00 | 0.00 | 69 | 1024.5 |
| 20260906062728 | 65 | 156 | 0.0 | 0.0 | 0.00 | 0.00 | 0.00 | 69 | 1024.5 |
| 20260906062227 | 65 | 156 | 0.0 | 0.0 | 0.00 | 0.00 | 0.00 | 70 | 1024.7 |
| 20260906061723 | 65 | 156 | 0.0 | 0.0 | 0.00 | 0.00 | 0.00 | 69 | 1024.4 |
| 20260906061219 | 64 | 156 | 0.0 | 0.0 | 0.00 | 0.00 | 0.00 | 69 | 1024.2 |
| 20260906060714 | 65 | 156 | 0.0 | 0.0 | 0.00 | 0.00 | 0.00 | 69 | 1024.2 |
| 20260906060212 | 65 | 156 | 0.0 | 0.0 | 0.00 | 0.00 | 0.00 | 68 | 1024.3 |
| 20260906055707 | 65 | 156 | 0.0 | 0.0 | 0.00 | 0.00 | 0.00 | 69 | 1024.3 |
| 20260906055202 | 64 | 156 | 0.0 | 0.0 | 0.00 | 0.00 | 0.00 | 70 | 1024.3 |
| 20260906054658 | 65 | 156 | 0.0 | 0.0 | 0.00 | 0.00 | 0.00 | 69 | 1024.3 |
| 20260906054158 | 65 | 156 | 0.0 | 0.0 | 0.00 | 0.00 | 0.00 | 69 | 1024.3 |
| 20260906053655 | 65 | 156 | 0.0 | 0.0 | 0.00 | 0.00 | 0.00 | 68 | 1023.9 |
| 20260906053150 | 65 | 156 | 0.0 | 0.0 | 0.00 | 0.00 | 0.00 | 68 | 1024.0 |
| 20260906052645 | 65 | 156 | 0.0 | 0.0 | 0.00 | 0.00 | 0.00 | 67 | 1024.2 |
| 20260906052141 | 66 | 156 | 0.0 | 0.0 | 0.00 | 0.00 | 0.00 | 67 | 1024.3 |
| 20260906051637 | 67 | 156 | 0.0 | 0.0 | 0.00 | 0.00 | 0.00 | 65 | 1024.2 |
| 20260906051137 | 67 | 156 | 0.0 | 0.0 | 0.00 | 0.00 | 0.00 | 64 | 1024.0 |
| 20260906050633 | 67 | 156 | 0.0 | 0.0 | 0.00 | 0.00 | 0.00 | 65 | 1024.2 |
| 20260906050128 | 67 | 156 | 0.0 | 0.0 | 0.00 | 0.00 | 0.00 | 64 | 1024.2 |
| 20260906045626 | 68 | 156 | 0.0 | 0.0 | 0.00 | 0.00 | 0.00 | 63 | 1024.2 |
| 20260906045121 | 67 | 156 | 0.0 | 0.0 | 0.00 | 0.00 | 0.00 | 64 | 1024.3 |
| 20260906044617 | 67 | 156 | 0.0 | 0.0 | 0.00 | 0.00 | 0.00 | 65 | 1024.3 |
| 20260906044113 | 67 | 156 | 0.0 | 0.0 | 0.00 | 0.00 | 0.00 | 64 | 1024.5 |
| 20260906043609 | 68 | 156 | 0.0 | 0.0 | 0.00 | 0.00 | 0.00 | 63 | 1024.4 |
| 20260906043104 | 68 | 156 | 0.0 | 0.0 | 0.00 | 0.00 | 0.00 | 62 | 1024.2 |
| 20260906042603 | 68 | 156 | 0.0 | 0.0 | 0.00 | 0.00 | 0.00 | 63 | 1024.5 |
| 20260906042058 | 68 | 156 | 0.0 | 0.0 | 0.00 | 0.00 | 0.00 | 63 | 1024.3 |
| 20260906041554 | 69 | 156 | 0.0 | 0.0 | 0.00 | 0.00 | 0.00 | 62 | 1024.8 |
| 20260906041048 | 68 | 156 | 0.0 | 0.0 | 0.00 | 0.00 | 0.00 | 63 | 1024.5 |
| 20260906040544 | 68 | 156 | 0.0 | 0.0 | 0.00 | 0.00 | 0.00 | 63 | 1024.0 |
| 20260906040039 | 68 | 156 | 0.0 | 0.0 | 0.00 | 0.00 | 0.00 | 64 | 1024.3 |
| 20260906035534 | 69 | 156 | 0.0 | 0.0 | 0.00 | 0.00 | 0.00 | 64 | 1024.3 |
| 20260906035030 | 69 | 156 | 0.0 | 0.0 | 0.00 | 0.00 | 0.00 | 62 | 1024.5 |
| 20260906034530 | 70 | 156 | 0.0 | 0.0 | 0.00 | 0.00 | 0.00 | 61 | 1024.5 |
| 20260906034020 | 71 | 156 | 0.0 | 0.0 | 0.00 | 0.00 | 0.00 | 58 | 1024.3 |
| 20260906033520 | 71 | 156 | 0.0 | 0.0 | 0.00 | 0.00 | 0.00 | 59 | 1024.4 |
| 20260906033016 | 70 | 156 | 0.0 | 0.0 | 0.00 | 0.00 | 0.00 | 59 | 1024.5 |
| 20260906032513 | 70 | 156 | 0.0 | 0.0 | 0.00 | 0.00 | 0.00 | 60 | 1024.5 |
| 20260906032012 | 70 | 156 | 0.0 | 0.0 | 0.00 | 0.00 | 0.00 | 60 | 1024.7 |
| 20260906031508 | 70 | 156 | 0.0 | 0.0 | 0.00 | 0.00 | 0.00 | 58 | 1024.5 |
| 20260906031003 | 71 | 156 | 0.0 | 0.0 | 0.00 | 0.00 | 0.00 | 57 | 1024.2 |
| 20260906030457 | 70 | 156 | 0.0 | 0.0 | 0.00 | 0.00 | 0.00 | 56 | 1024.0 |
| 20260906025957 | 70 | 156 | 0.0 | 0.0 | 0.00 | 0.00 | 0.00 | 55 | 1023.7 |
| 20260906025456 | 70 | 156 | 0.0 | 0.0 | 0.00 | 0.00 | 0.00 | 54 | 1023.9 |
| 20260906024955 | 71 | 156 | 0.0 | 0.0 | 0.00 | 0.00 | 0.00 | 52 | 1023.9 |
| 20260906024450 | 71 | 156 | 0.0 | 0.0 | 0.00 | 0.00 | 0.00 | 51 | 1023.6 |
| 20260906023950 | 71 | 156 | 0.0 | 0.0 | 0.00 | 0.00 | 0.00 | 49 | 1023.6 |
| 20260906023447 | 71 | 156 | 0.0 | 0.0 | 0.00 | 0.00 | 0.00 | 48 | 1023.7 |
| 20260906022947 | 70 | 156 | 0.0 | 0.0 | 0.00 | 0.00 | 0.00 | 48 | 1023.6 |
| 20260906022442 | 70 | 156 | 0.0 | 0.0 | 0.00 | 0.00 | 0.00 | 48 | 1023.4 |
| 20260906021938 | 71 | 156 | 0.0 | 0.0 | 0.00 | 0.00 | 0.00 | 47 | 1023.1 |
| 20260906021437 | 71 | 156 | 0.0 | 0.0 | 0.00 | 0.00 | 0.00 | 45 | 1022.8 |
| 20260906020932 | 71 | 156 | 0.0 | 0.0 | 0.00 | 0.00 | 0.00 | 45 | 1023.0 |
| 20260906020427 | 71 | 156 | 0.0 | 0.0 | 0.00 | 0.00 | 0.00 | 46 | 1023.0 |
| 20260906015927 | 71 | 156 | 0.0 | 0.0 | 0.00 | 0.00 | 0.00 | 47 | 1022.2 |
| 20260906015426 | 71 | 156 | 0.0 | 0.0 | 0.00 | 0.00 | 0.00 | 46 | 1022.7 |
| 20260906014926 | 72 | 156 | 0.0 | 0.0 | 0.00 | 0.00 | 0.00 | 46 | 1022.4 |
| 20260906014426 | 73 | 156 | 0.0 | 0.0 | 0.00 | 0.00 | 0.00 | 45 | 1022.5 |
| 20260906013923 | 74 | 156 | 0.0 | 0.0 | 0.00 | 0.00 | 0.00 | 42 | 1022.5 |
| 20260906013418 | 74 | 156 | 0.0 | 0.0 | 0.00 | 0.00 | 0.00 | 43 | 1022.5 |
| 20260906012914 | 75 | 156 | 0.0 | 0.0 | 0.00 | 0.00 | 0.00 | 42 | 1022.7 |
| 20260906012414 | 75 | 156 | 0.0 | 0.0 | 0.00 | 0.00 | 0.00 | 41 | 1022.2 |
| 20260906011913 | 76 | 156 | 0.0 | 0.0 | 0.00 | 0.00 | 0.00 | 41 | 1022.5 |
| 20260906011408 | 76 | 156 | 0.0 | 0.0 | 0.00 | 0.00 | 0.00 | 40 | 1022.4 |
| 20260906010909 | 76 | 156 | 0.0 | 0.0 | 0.00 | 0.00 | 0.00 | 40 | 1022.6 |
| 20260906010404 | 76 | 156 | 0.0 | 0.0 | 0.00 | 0.00 | 0.00 | 40 | 1022.2 |
| 20260906005900 | 76 | 156 | 0.0 | 0.0 | 0.00 | 0.00 | 0.00 | 41 | 1022.4 |
| 20260906005359 | 77 | 156 | 0.0 | 0.0 | 0.00 | 0.00 | 0.00 | 41 | 1022.7 |
| 20260906004859 | 77 | 156 | 0.0 | 0.0 | 0.00 | 0.00 | 0.00 | 43 | 1022.7 |
| 20260906004359 | 77 | 156 | 0.0 | 0.0 | 0.00 | 0.00 | 0.00 | 43 | 1022.6 |
| 20260906003854 | 78 | 156 | 0.0 | 0.0 | 0.00 | 0.00 | 0.00 | 42 | 1022.8 |
| 20260906003349 | 79 | 156 | 0.0 | 0.0 | 0.00 | 0.00 | 0.00 | 40 | 1022.8 |
| 20260906002845 | 80 | 156 | 0.0 | 0.0 | 0.00 | 0.00 | 0.00 | 39 | 1022.7 |
| 20260906002344 | 80 | 156 | 0.0 | 0.0 | 0.00 | 0.00 | 0.00 | 38 | 1022.7 |
| 20260906001840 | 81 | 156 | 0.0 | 0.0 | 0.00 | 0.00 | 0.00 | 38 | 1022.5 |
| 20260906001335 | 81 | 156 | 0.0 | 0.0 | 0.00 | 0.00 | 0.00 | 35 | 1022.5 |
| 20260906000830 | 82 | 156 | 0.0 | 0.0 | 0.00 | 0.00 | 0.00 | 35 | 1022.6 |
| 20260906000326 | 83 | 156 | 0.0 | 0.0 | 0.00 | 0.00 | 0.00 | 34 | 1022.2 |
| 20260905235825 | 83 | 155 | 0.0 | 0.0 | 0.00 | 0.00 | 0.00 | 33 | 1022.6 |
| 20260905235319 | 83 | 155 | 0.0 | 0.0 | 0.00 | 0.00 | 0.00 | 34 | 1022.6 |
| 20260905234815 | 84 | 155 | 0.0 | 0.0 | 0.00 | 0.00 | 0.00 | 33 | 1022.8 |
| 20260905234310 | 84 | 155 | 0.0 | 0.0 | 0.00 | 0.00 | 0.00 | 32 | 1022.6 |
| 20260905233805 | 86 | 155 | 0.0 | 0.0 | 0.00 | 0.00 | 0.00 | 32 | 1023.0 |
| 20260905233306 | 85 | 155 | 0.0 | 0.0 | 0.00 | 0.00 | 0.00 | 31 | 1022.4 |
| 20260905232804 | 86 | 155 | 0.0 | 0.0 | 0.00 | 0.00 | 0.00 | 30 | 1022.4 |
| 20260905232301 | 87 | 155 | 0.0 | 0.0 | 0.00 | 0.00 | 0.00 | 29 | 1022.6 |
| 20260905231756 | 87 | 155 | 0.0 | 0.0 | 0.00 | 0.00 | 0.00 | 31 | 1022.7 |
| 20260905231251 | 87 | 155 | 0.0 | 0.0 | 0.00 | 0.00 | 0.00 | 30 | 1022.5 |
| 20260905230748 | 86 | 155 | 0.0 | 0.0 | 0.00 | 0.00 | 0.00 | 31 | 1022.6 |
| 20260905230245 | 83 | 156 | 0.0 | 0.0 | 0.00 | 0.00 | 0.00 | 34 | 1022.6 |
| 20260905225745 | 83 | 156 | 0.0 | 0.0 | 0.00 | 0.00 | 0.00 | 34 | 1022.8 |
| 20260905225240 | 83 | 155 | 0.0 | 0.0 | 0.00 | 0.00 | 0.00 | 35 | 1022.7 |
| 20260905224739 | 84 | 155 | 0.0 | 0.0 | 0.00 | 0.00 | 0.00 | 34 | 1022.7 |
| 20260905224235 | 85 | 155 | 0.0 | 0.0 | 0.00 | 0.00 | 0.00 | 33 | 1022.6 |
| 20260905223731 | 85 | 155 | 0.0 | 0.0 | 0.00 | 0.00 | 0.00 | 34 | 1022.7 |
| 20260905223228 | 84 | 155 | 0.0 | 0.0 | 0.00 | 0.00 | 0.00 | 34 | 1023.1 |
| 20260905222723 | 84 | 155 | 0.0 | 0.0 | 0.00 | 0.00 | 0.00 | 33 | 1022.8 |
| 20260905222222 | 84 | 155 | 0.0 | 0.0 | 0.00 | 0.00 | 0.00 | 32 | 1022.6 |
| 20260905221718 | 85 | 155 | 0.0 | 0.0 | 0.00 | 0.00 | 0.00 | 32 | 1022.8 |
| 20260905221215 | 87 | 155 | 0.0 | 0.0 | 0.00 | 0.00 | 0.00 | 31 | 1022.8 |
| 20260905220711 | 87 | 155 | 0.0 | 0.0 | 0.00 | 0.00 | 0.00 | 31 | 1022.7 |
| 20260905220206 | 86 | 155 | 0.0 | 0.0 | 0.00 | 0.00 | 0.00 | 34 | 1022.8 |
| 20260905215706 | 84 | 155 | 0.0 | 0.0 | 0.00 | 0.00 | 0.00 | 36 | 1023.0 |
| 20260905215201 | 82 | 155 | 0.0 | 0.0 | 0.00 | 0.00 | 0.00 | 37 | 1023.1 |
| 20260905214657 | 82 | 155 | 0.0 | 0.0 | 0.00 | 0.00 | 0.00 | 38 | 1023.2 |
| 20260905214152 | 82 | 155 | 0.0 | 0.0 | 0.00 | 0.00 | 0.00 | 39 | 1023.2 |